Time,TemperatureF,DewpointF,PressureIn,WindDirection,WindDirectionDegrees,WindSpeedMPH,WindSpeedGustMPH,Humidity,HourlyPrecipIn,Conditions,Clouds,dailyrainin,SoftwareType,DateUTC
2013-10-28 00:24:00,39.0,35.0,30.07,ESE,117,0.0,0.0,87,0.00,,,0.00,,2013-10-28 04:24:00,
2013-10-28 00:34:00,39.0,35.0,30.07,ESE,117,0.0,0.0,87,0.00,,,0.00,,2013-10-28 04:34:00,
2013-10-28 00:53:00,39.0,35.0,30.07,ESE,117,0.0,0.0,87,0.00,,,0.00,,2013-10-28 04:53:00,
2013-10-28 01:13:00,38.0,35.0,30.07,SE,143,0.0,0.0,88,0.00,,,0.00,,2013-10-28 05:13:00,
2013-10-28 01:22:00,38.0,35.0,30.07,SE,143,0.0,0.0,88,0.00,,,0.00,,2013-10-28 05:22:00,
2013-10-28 01:53:00,37.0,34.0,30.07,SE,143,0.0,0.0,89,0.00,,,0.00,,2013-10-28 05:53:00,
2013-10-28 02:03:00,37.0,34.0,30.07,SE,143,0.0,0.0,89,0.00,,,0.00,,2013-10-28 06:03:00,
2013-10-28 02:12:00,37.0,34.0,30.07,SE,143,0.0,0.0,89,0.00,,,0.00,,2013-10-28 06:12:00,
2013-10-28 02:22:00,37.0,34.0,30.07,SE,143,0.0,0.0,89,0.00,,,0.00,,2013-10-28 06:22:00,
2013-10-28 02:43:00,36.0,33.0,30.08,SE,143,0.0,0.0,90,0.00,,,0.00,,2013-10-28 06:43:00,
2013-10-28 02:52:00,36.0,33.0,30.08,SE,143,0.0,0.0,90,0.00,,,0.00,,2013-10-28 06:52:00,
2013-10-28 03:02:00,36.0,33.0,30.08,SE,143,0.0,0.0,90,0.00,,,0.00,,2013-10-28 07:02:00,
2013-10-28 03:12:00,36.0,33.0,30.08,SE,143,0.0,0.0,90,0.00,,,0.00,,2013-10-28 07:12:00,
2013-10-28 03:22:00,36.0,33.0,30.08,SE,143,0.0,0.0,90,0.00,,,0.00,,2013-10-28 07:22:00,
2013-10-28 03:32:00,36.0,33.0,30.08,SE,143,0.0,0.0,90,0.00,,,0.00,,2013-10-28 07:32:00,
2013-10-28 03:52:00,35.0,32.0,30.09,SE,143,0.0,0.0,90,0.00,,,0.00,,2013-10-28 07:52:00,
2013-10-28 04:12:00,35.0,33.0,30.10,SE,143,0.0,0.0,91,0.00,,,0.00,,2013-10-28 08:12:00,
2013-10-28 04:22:00,35.0,33.0,30.10,SE,143,0.0,0.0,91,0.00,,,0.00,,2013-10-28 08:22:00,
2013-10-28 04:32:00,35.0,33.0,30.10,SE,143,0.0,0.0,91,0.00,,,0.00,,2013-10-28 08:32:00,
2013-10-28 04:42:00,35.0,33.0,30.10,SE,143,0.0,0.0,91,0.00,,,0.00,,2013-10-28 08:42:00,
2013-10-28 04:52:00,34.0,32.0,30.10,SE,143,0.0,0.0,91,0.00,,,0.00,,2013-10-28 08:52:00,
2013-10-28 05:02:00,34.0,32.0,30.10,SE,143,0.0,0.0,91,0.00,,,0.00,,2013-10-28 09:02:00,
2013-10-28 05:12:00,34.0,32.0,30.10,SE,143,0.0,0.0,91,0.00,,,0.00,,2013-10-28 09:12:00,
2013-10-28 05:22:00,34.0,32.0,30.10,SE,143,0.0,0.0,91,0.00,,,0.00,,2013-10-28 09:22:00,
2013-10-28 05:53:00,33.0,31.0,30.11,SE,143,0.0,0.0,91,0.00,,,0.00,,2013-10-28 09:53:00,
2013-10-28 06:23:00,32.0,30.0,30.12,SE,143,0.0,0.0,92,0.00,,,0.00,,2013-10-28 10:23:00,
2013-10-28 06:43:00,32.0,30.0,30.13,SE,143,0.0,0.0,92,0.00,,,0.00,,2013-10-28 10:43:00,
2013-10-28 06:53:00,32.0,30.0,30.13,SE,143,0.0,0.0,92,0.00,,,0.00,,2013-10-28 10:53:00,
2013-10-28 07:12:00,32.0,30.0,30.14,SE,143,0.0,0.0,92,0.00,,,0.00,,2013-10-28 11:12:00,
2013-10-28 07:22:00,32.0,30.0,30.14,SE,143,0.0,0.0,92,0.00,,,0.00,,2013-10-28 11:22:00,
2013-10-28 07:33:00,32.0,30.0,30.14,SE,143,0.0,0.0,92,0.00,,,0.00,,2013-10-28 11:33:00,
2013-10-28 07:42:00,32.0,30.0,30.14,SE,143,0.0,0.0,92,0.00,,,0.00,,2013-10-28 11:42:00,
2013-10-28 07:52:00,32.0,30.0,30.14,SE,141,0.0,0.0,92,0.00,,,0.00,,2013-10-28 11:52:00,
2013-10-28 08:12:00,32.0,30.0,30.14,SE,141,0.0,0.0,92,0.00,,,0.00,,2013-10-28 12:12:00,
2013-10-28 08:21:00,31.0,29.0,30.16,SE,141,0.0,0.0,92,0.00,,,0.00,,2013-10-28 12:21:00,
2013-10-28 08:42:00,31.0,29.0,30.16,SE,141,0.0,0.0,92,0.00,,,0.00,,2013-10-28 12:42:00,
2013-10-28 08:52:00,32.0,30.0,30.17,SE,141,0.0,0.0,92,0.00,,,0.00,,2013-10-28 12:52:00,
2013-10-28 09:11:00,32.0,30.0,30.17,SE,141,0.0,0.0,92,0.00,,,0.00,,2013-10-28 13:11:00,
2013-10-28 09:22:00,32.0,30.0,30.17,SE,141,0.0,0.0,92,0.00,,,0.00,,2013-10-28 13:22:00,
2013-10-28 09:32:00,32.0,30.0,30.17,SE,141,0.0,0.0,92,0.00,,,0.00,,2013-10-28 13:32:00,
2013-10-28 09:52:00,34.0,32.0,30.19,SE,141,0.0,0.0,93,0.00,,,0.00,,2013-10-28 13:52:00,
2013-10-28 10:11:00,36.0,34.0,30.19,SE,143,0.0,0.0,94,0.00,,,0.00,,2013-10-28 14:11:00,
2013-10-28 10:22:00,36.0,34.0,30.19,SE,143,0.0,0.0,94,0.00,,,0.00,,2013-10-28 14:22:00,
2013-10-28 10:42:00,40.0,40.0,30.20,SE,140,0.0,0.0,100,0.00,,,0.00,,2013-10-28 14:42:00,
2013-10-28 10:52:00,42.0,42.0,30.19,East,89,0.0,0.0,100,0.00,,,0.00,,2013-10-28 14:52:00,
2013-10-28 11:11:00,44.0,43.0,30.19,East,80,0.0,1.0,97,0.00,,,0.00,,2013-10-28 15:11:00,
2013-10-28 11:22:00,44.0,43.0,30.19,East,80,0.0,1.0,97,0.00,,,0.00,,2013-10-28 15:22:00,
2013-10-28 11:43:00,51.0,42.0,30.19,ENE,78,0.0,1.0,72,0.00,,,0.00,,2013-10-28 15:43:00,
2013-10-28 11:53:00,54.0,39.0,30.19,ENE,75,0.0,5.0,57,0.00,,,0.00,,2013-10-28 15:53:00,
2013-10-28 12:23:00,57.0,36.0,30.20,NNE,23,0.0,7.0,45,0.00,,,0.00,,2013-10-28 16:23:00,
2013-10-28 12:43:00,58.0,37.0,30.19,NNE,23,0.0,6.0,46,0.00,,,0.00,,2013-10-28 16:43:00,
2013-10-28 12:53:00,58.0,37.0,30.19,NNE,27,0.0,11.0,45,0.00,,,0.00,,2013-10-28 16:53:00,
2013-10-28 13:12:00,59.0,35.0,30.19,NNE,13,0.0,3.0,41,0.00,,,0.00,,2013-10-28 17:12:00,
2013-10-28 13:23:00,59.0,35.0,30.19,NNE,13,0.0,3.0,41,0.00,,,0.00,,2013-10-28 17:23:00,
2013-10-28 13:52:00,60.0,36.0,30.19,NNE,25,0.0,6.0,40,0.00,,,0.00,,2013-10-28 17:52:00,
2013-10-28 14:12:00,62.0,37.0,30.18,East,80,0.0,6.0,39,0.00,,,0.00,,2013-10-28 18:12:00,
2013-10-28 14:22:00,62.0,37.0,30.18,East,80,0.0,6.0,39,0.00,,,0.00,,2013-10-28 18:22:00,
2013-10-28 14:52:00,62.0,34.0,30.17,East,90,0.0,8.0,35,0.00,,,0.00,,2013-10-28 18:52:00,
2013-10-28 15:11:00,62.0,33.0,30.16,NE,52,0.0,2.0,34,0.00,,,0.00,,2013-10-28 19:11:00,
2013-10-28 15:22:00,62.0,33.0,30.16,NE,52,0.0,2.0,34,0.00,,,0.00,,2013-10-28 19:22:00,
2013-10-28 15:33:00,62.0,33.0,30.16,NE,52,0.0,2.0,34,0.00,,,0.00,,2013-10-28 19:33:00,
2013-10-28 15:42:00,62.0,33.0,30.16,NE,52,0.0,2.0,34,0.00,,,0.00,,2013-10-28 19:42:00,
2013-10-28 15:53:00,61.0,32.0,30.17,NNE,24,0.0,5.0,34,0.00,,,0.00,,2013-10-28 19:53:00,
2013-10-28 16:02:00,61.0,32.0,30.17,NNE,24,0.0,5.0,34,0.00,,,0.00,,2013-10-28 20:02:00,
2013-10-28 16:12:00,61.0,32.0,30.17,NNE,24,0.0,5.0,34,0.00,,,0.00,,2013-10-28 20:12:00,
2013-10-28 16:22:00,61.0,35.0,30.17,NNE,27,0.0,3.0,37,0.00,,,0.00,,2013-10-28 20:22:00,
2013-10-28 16:52:00,62.0,32.0,30.17,NNE,25,0.0,4.0,32,0.00,,,0.00,,2013-10-28 20:52:00,
2013-10-28 17:02:00,62.0,32.0,30.17,NNE,25,0.0,4.0,32,0.00,,,0.00,,2013-10-28 21:02:00,
2013-10-28 17:11:00,62.0,32.0,30.17,NNE,25,0.0,4.0,32,0.00,,,0.00,,2013-10-28 21:11:00,
2013-10-28 17:22:00,62.0,32.0,30.17,NNE,25,0.0,4.0,32,0.00,,,0.00,,2013-10-28 21:22:00,
2013-10-28 17:43:00,63.0,31.0,30.19,NE,41,0.0,2.0,30,0.00,,,0.00,,2013-10-28 21:43:00,
2013-10-28 17:54:00,63.0,29.0,30.19,NE,41,0.0,0.0,28,0.00,,,0.00,,2013-10-28 21:54:00,
2013-10-28 18:04:00,63.0,29.0,30.19,NE,41,0.0,0.0,28,0.00,,,0.00,,2013-10-28 22:04:00,
2013-10-28 18:23:00,61.0,32.0,30.20,NE,42,0.0,0.0,34,0.00,,,0.00,,2013-10-28 22:23:00,
2013-10-28 18:34:00,61.0,32.0,30.20,NE,42,0.0,0.0,34,0.00,,,0.00,,2013-10-28 22:34:00,
2013-10-28 18:53:00,61.0,32.0,30.20,NE,42,0.0,0.0,34,0.00,,,0.00,,2013-10-28 22:53:00,
2013-10-28 19:22:00,52.0,36.0,30.22,East,89,0.0,0.0,54,0.00,,,0.00,,2013-10-28 23:22:00,
2013-10-28 19:42:00,51.0,36.0,30.23,East,89,0.0,0.0,57,0.00,,,0.00,,2013-10-28 23:42:00,
2013-10-28 19:52:00,50.0,37.0,30.24,NNE,20,0.0,0.0,61,0.00,,,0.00,,2013-10-28 23:52:00,
2013-10-28 20:22:00,49.0,37.0,30.24,East,90,0.0,0.0,64,0.00,,,0.00,,2013-10-29 00:22:00,
2013-10-28 20:42:00,47.0,37.0,30.26,East,90,0.0,0.0,67,0.00,,,0.00,,2013-10-29 00:42:00,
2013-10-28 20:52:00,47.0,37.0,30.26,East,88,0.0,0.0,69,0.00,,,0.00,,2013-10-29 00:52:00,
2013-10-28 21:11:00,46.0,37.0,30.26,East,88,0.0,0.0,70,0.00,,,0.00,,2013-10-29 01:11:00,
2013-10-28 21:22:00,45.0,37.0,30.26,East,83,0.0,0.0,73,0.00,,,0.00,,2013-10-29 01:22:00,
2013-10-28 21:31:00,45.0,37.0,30.26,East,83,0.0,0.0,73,0.00,,,0.00,,2013-10-29 01:31:00,
2013-10-28 21:42:00,45.0,37.0,30.26,East,83,0.0,0.0,73,0.00,,,0.00,,2013-10-29 01:42:00,
2013-10-28 21:53:00,45.0,37.0,30.26,East,83,0.0,0.0,73,0.00,,,0.00,,2013-10-29 01:53:00,
2013-10-28 22:02:00,45.0,37.0,30.26,East,83,0.0,0.0,73,0.00,,,0.00,,2013-10-29 02:02:00,
2013-10-28 22:21:00,43.0,37.0,30.27,East,90,0.0,0.0,79,0.00,,,0.00,,2013-10-29 02:21:00,
2013-10-28 22:44:00,43.0,37.0,30.27,East,90,0.0,0.0,80,0.00,,,0.00,,2013-10-29 02:44:00,
2013-10-28 22:54:00,43.0,37.0,30.27,East,90,0.0,0.0,80,0.00,,,0.00,,2013-10-29 02:54:00,
2013-10-28 23:03:00,43.0,37.0,30.27,East,90,0.0,0.0,80,0.00,,,0.00,,2013-10-29 03:03:00,
2013-10-28 23:14:00,43.0,37.0,30.27,East,90,0.0,0.0,80,0.00,,,0.00,,2013-10-29 03:14:00,
2013-10-28 23:27:00,42.0,37.0,30.28,East,90,0.0,0.0,82,0.00,,,0.00,,2013-10-29 03:27:00,
2013-10-28 23:40:00,-999.0,-99.9,30.28,East,90,0.0,0.0,82,0.00,,,0.00,,2013-10-29 03:40:00,
2013-10-28 23:48:00,42.0,37.0,30.28,East,90,0.0,0.0,82,0.00,,,0.00,,2013-10-29 03:48:00,
2013-10-28 23:56:00,42.0,37.0,30.28,East,90,0.0,0.0,83,0.00,,,0.00,,2013-10-29 03:56:00,